This is the latest recevied weather packets stored in our database for station/object OK1FET-5. If no packets are shown the sender has not sent any weather packets the latest 10 day(s).
| Time | Temp. | Humidity | Pressure | Rain* | Wind** | Luminosity | Snow |
|---|---|---|---|---|---|---|---|
| 1777520991 | -0.56° C | 37% | 1032.5 hPa | - | - | - | - |
| 1777520111 | -0.56° C | 35% | 1032.4 hPa | - | - | - | - |
| 1777519818 | -0.56° C | 37% | 1032.3 hPa | - | - | - | - |
| 1777519524 | -1.11° C | 36% | 1032.3 hPa | - | - | - | - |
| 1777519231 | -1.11° C | 36% | 1032.2 hPa | - | - | - | - |
| 1777518937 | -1.11° C | 36% | 1032.2 hPa | - | - | - | - |
| 1777518644 | -1.11° C | 40% | 1032.2 hPa | - | - | - | - |
| 1777518350 | -0.56° C | 38% | 1032.2 hPa | - | - | - | - |
| 1777517763 | -0.56° C | 40% | 1032.2 hPa | - | - | - | - |
| 1777517470 | -0.56° C | 38% | 1032.1 hPa | - | - | - | - |
| 1777517176 | -1.11° C | 34% | 1032.2 hPa | - | - | - | - |
| 1777516883 | -0.56° C | 35% | 1032.2 hPa | - | - | - | - |
| 1777516589 | -0.56° C | 35% | 1032.1 hPa | - | - | - | - |
| 1777515122 | 1.11° C | 32% | 1032.1 hPa | - | - | - | - |
| 1777514828 | 1.67° C | 32% | 1032.1 hPa | - | - | - | - |
| 1777514535 | 1.11° C | 32% | 1032.1 hPa | - | - | - | - |
| 1777514241 | 1.11° C | 32% | 1032.1 hPa | - | - | - | - |
| 1777513654 | 1.11° C | 32% | 1032 hPa | - | - | - | - |
| 1777513067 | 1.67° C | 32% | 1032 hPa | - | - | - | - |
| 1777512773 | 1.67° C | 32% | 1032 hPa | - | - | - | - |
| 1777512480 | 2.22° C | 31% | 1032 hPa | - | - | - | - |
| 1777512186 | 2.78° C | 30% | 1031.9 hPa | - | - | - | - |
| 1777511892 | 2.78° C | 31% | 1031.8 hPa | - | - | - | - |
| 1777511598 | 2.22° C | 31% | 1031.8 hPa | - | - | - | - |
| 1777511305 | 2.22° C | 32% | 1031.8 hPa | - | - | - | - |
* Rain since midnight (hover to see other rain measurements)
** Current wind speed in m/s (hover to see current wind gust speed)